{"data":{"norad_id":32958,"intl_designator":"2008-026A","name":"FENGYUN 3A","alt_names":[],"object_type":"PAYLOAD","status":"ACTIVE","operator":null,"country":"PRC","launch_date":"2008-05-27","launch_site_code":"TAISC","launch_vehicle":null,"mission":null,"orbit_class":"UNKNOWN","rcs_meters":6.5849,"size_class":null,"mass_kg":null,"dimensions":null,"purposes":["earth_obs"],"wikipedia_slug":null,"has_3d_model":false,"image_url":null,"decayed_at":null,"tle_current":{"epoch":"2026-09-20T03:05:46.900320Z","epoch_age_seconds":50394,"freshness":"FRESH","line1":"1 32958U 08026A   26263.12901505  .00000035  00000+0  37245-4 0  9997","line2":"2 32958  98.6940 202.2056 0008030 208.5119 151.5619 14.19587568948877","mean_motion":14.19587568,"eccentricity":0.000803,"inclination_deg":98.694,"raan_deg":202.2056,"arg_perigee_deg":208.5119,"mean_anomaly_deg":151.5619,"bstar":3.7245e-5,"rev_number":94887,"period_min":101.43791284597,"perigee_km":820.96241903663,"apogee_km":832.53346425291,"semimajor_km":7204.8849416448,"source":"CELESTRAK","updated_at":"2026-09-20T09:00:33.213279Z"}}}